Preview of NWS' New Version of Forecast
This preview is not operational and should not be used for support decisions.

Terminal Aerodrome Forecast (TAF)

Issued by National Weather Service (NWS)

                            
000
FTUS42 KKEY 161505 AAB
TAFEYW
TAF AMD
KEYW 161505Z 1615/1712 01011KT P6SM SCT020 SCT200=